Regional Weather Roundup
Issued by NWS Wakefield, VA

Home | Current Version | Previous Version | Graphics & Text | Print | Product List | Glossary On
Versions: 1 2 3 4 5 6 7 8 9 10 11 12 13 14 15 16 17 18 19 20 21 22 23 24 25 26 27 28 29 30 31 32 33 34 35 36 37 38 39 40 41 42 43 44 45 46 47
000
ASUS41 KAKQ 271915
RWRAKQ

REGIONAL WEATHER ROUNDUP
NATIONAL WEATHER SERVICE WAKEFIELD VA
300 PM EDT WED MAY 27 2015

Note: "fair" indicates few or no clouds below 12,000 feet with no
significant weather and/or obstructions to visibility. * = Denotes
station may not report precipitation (e.g., rain,snow,etc.),
thunder or fog.

VAZ042-051-052>054-056-272000-
NORTHERN VIRGINIA

CITY           SKY/WX    TMP DP  RH WIND       PRES   REMARKS
WASH NATIONAL  PTSUNNY   89  68  49 S14       30.11F
DULLES         LGT RAIN  75  66  73 N15G23    30.14R
FORT BELVOIR   MOSUNNY   88  67  50 S10       30.12F
QUANTICO       PTSUNNY   85  67  54 SW10      30.12F
FREDERICKSBRG* MOSUNNY   90  67  47 SW12      30.12F
STAFFORD*      PTSUNNY   87  64  45 SW8       30.17F
WARRENTON      MOSUNNY   88  69  54 S12       30.12F
CULPEPER*      MOSUNNY   87  66  50 S8        30.13F
MANASSAS*      CLOUDY    84  70  61 SW6       30.12F
LEESBURG*      PTSUNNY   73  68  83 NW9G21    30.15S
WINCHESTER     PTSUNNY   77  64  65 S7        30.15F
FRONT ROYAL*   FAIR      75  68  78 S3        30.14F
LURAY*         MOCLDY    81  66  61 E7        30.16F
$$

VAZ048-049-060>072-079>083-272000-
CENTRAL AND SOUTH CENTRAL VIRGINIA

CITY           SKY/WX    TMP DP  RH WIND       PRES   REMARKS
RICHMOND       PTSUNNY   89  66  46 SW15      30.15F
CHESTERFIELD*  NOT AVBL
PETERSBURG*    MOSUNNY   89  73  59 SW6       30.17F HX  96
HANOVER        PTSUNNY   86  66  51 S8        30.16F
TAPPAHANNOCK*  MOSUNNY   89  61  38 S10       30.15F
QUINTON*       FAIR      86  69  56 SW6       30.16F
CHARLOTTSVILLE PTSUNNY   83  66  56 S12       30.15F
GORDONSVILLE*  FAIR      83  68  60 SW8       30.14F
ORANGE*        PTSUNNY   86  68  54 S12G17    30.15F
LOUISA*        PTSUNNY   84  66  54 SW8       30.15S
BUMPASS*       FAIR      85  66  53 SW8       30.15S
FARMVILLE*     MOSUNNY   87  63  44 SW8       30.15F
CREWE*         FAIR      85  65  52 SW8       30.17F
FORT PICKETT*  FAIR      86  66  52 SW15      30.17F
CHASE CITY*    MOCLDY    88  69  54 S8        30.19S
CLARKSVILLE*   FAIR      82  66  57 SW7       30.19S
SOUTH HILL*    MOSUNNY   85  66  54 CALM      30.24F
LAWRENCEVILLE* MOCLDY    84  70  61 S5        30.18F
EMPORIA*       MOSUNNY   88  68  51 SE7       30.19F
$$

VAZ088>098-272000-
SOUTHEAST VIRGINIA

CITY           SKY/WX    TMP DP  RH WIND       PRES   REMARKS
NORFOLK        PTSUNNY   87  67  51 S13       30.17F
VIRGINIA BEACH PTSUNNY   87  70  56 S8G21     30.18F
NORFOLK NAVAL  MOSUNNY   93  67  42 S14       30.18F HX  96
WEST POINT*    MOSUNNY   91  64  40 S9        30.17F
SALUDA*        FAIR      87  69  54 SW10G17   30.16F
NEWPORT NEWS   MOSUNNY   91  69  48 S10       30.17F HX  96
LANGLEY AFB    MOSUNNY   88  70  55 SW16      30.16F
FORT EUSTIS    SUNNY     86  68  54 VRB7      30.15F
WILLIAMSBURG*  SUNNY     91  72  52 SW5       30.17F HX  98
HR EXEC AP*    FAIR      88  72  58 SW12      30.19F
FRANKLIN*      PTSUNNY   88  68  52 S13       30.18F
WAKEFIELD      MOSUNNY   86  69  56 S9        30.17F
$$

VAZ020-022-025-037-045-272000-
WEST CENTRAL AND SOUTHWEST VIRGINIA

CITY           SKY/WX    TMP DP  RH WIND       PRES   REMARKS
STAUNTON*      MOSUNNY   85  61  44 SW10G16   30.18F
WAYNESBORO*    FAIR      82  66  59 S9        30.18F
HOT SPRINGS VA MOSUNNY   74  56  54 S7        30.28F
LYNCHBURG      PTSUNNY   84  62  47 S13       30.19F
DANVILLE       PTSUNNY   83  64  52 SW7       30.20F
SOUTH BOSTON*  FAIR      83  64  52 MISG      30.19S
MARTINSVILLE   MOSUNNY   82  63  51 SW6       30.23F
ROANOKE        MOSUNNY   86  60  41 S8        30.19F
BLACKSBURG     MOSUNNY   79  56  45 W5        30.26F
DUBLIN*        MOSUNNY   82  56  41 SW5       30.25F
MARION*        PTSUNNY   78  58  50 W10       30.28F
HILLSVILLE*    PTSUNNY   75  64  67 S5        30.27S
RICHLANDS*     FAIR      76  58  52 SW7       30.26F
WISE*          PTSUNNY   77  52  41 SW9       30.28S
ABINGDON*      MOSUNNY   80  59  48 W3        30.24F
$$

MDZ021>025-VAZ099-100-272000-
SOUTHERN MARYLAND AND THE DELMARVA PENINSULA

CITY           SKY/WX    TMP DP  RH WIND       PRES   REMARKS
PATUXENT RIVER PTSUNNY   88  67  49 S14G25    30.13F
BAY BRIDGE APT NOT AVBL
LEONARDTOWN    NOT AVBL
DOVER          SUNNY     89  70  53 S13       30.10F
GEORGETOWN     MOSUNNY   88  67  49 S18G24    30.15F
EASTON         MOSUNNY   86  72  62 SW14      30.17F
CAMBRIDGE      NOT AVBL
SALISBURY      SUNNY     86  67  52 SW15G25   30.16F
OCEAN CITY     SUNNY     73  64  73 S13G24    30.19F
WALLOPS ISLAND SUNNY     76  68  76 S21G26    30.20F
ACCOMACK*      SUNNY     81  70  69 S14G21    30.20S
$$

NCZ012>017-030>032-272000-
NORTH CENTRAL AND EASTERN NORTH CAROLINA

CITY           SKY/WX    TMP DP  RH WIND       PRES   REMARKS
ROANOKE RAPIDS MOCLDY    86  68  54 S6        30.18F
RALEIGH        PTSUNNY   82  67  60 W7        30.20F
ELIZABETH CITY MOSUNNY   82  69  64 SE14      30.22F
AHOSKIE*       MOSUNNY   84  70  62 S9        30.19F
EDENTON*         N/A     83  70  66 S13G18    30.22F
CURRITUCK*     MOSUNNY   83  66  55 S9G16     30.23S
KILL DEVIL HLS SUNNY     80  65  61 S9G16     30.25F
MANTEO         SUNNY     78  66  67 S18G25    30.26F
CAPE HATTERAS  SUNNY     82  63  52 S16       30.28F
TARBORO*       FAIR      89  67  49 S6        30.19F
GOLDSBORO      PTSUNNY   85  68  56 SW1       30.17F
WASHINGTON     MOSUNNY   85  70  61 SE9       30.21F
GREENVILLE     MOSUNNY   82  70  65 SE8       30.21F
NEW BERN       PTSUNNY   83  67  58 S17       30.24F
WILMINGTON     SUNNY     83  67  58 S15       30.23F
$$

VAZ048-272000-
ELSEWHERE

CITY           SKY/WX    TMP DP  RH WIND       PRES   REMARKS
HARRISBURG PA  TSTM      71  68  90 W5        30.12R FOG
BALTIMORE      PTSUNNY   86  66  51 SW10      30.11F
ANNAPOLIS      MOSUNNY   82  69  64 S13G23    30.12F
ANDREWS AFB    MOSUNNY   86  67  52 SW9       30.12F
PHILADELPHIA   PTSUNNY   87  67  51 S17       30.11F
HENDERSON NC   PTSUNNY   83  63  50 SW8       30.20F
GREENSBORO     PTSUNNY   80  66  62 SW9       30.21F
ROCKY MOUNT    MOSUNNY   87  66  49 S6        30.19F
$$

VAZ100-272000-
MARINE

STATION/POSITION TIME  TEMP    WIND        PRES    WAVE   SWELL
                       AIR SEA DIR/SP/G            HT/PER HT/PER
                 (UTC) (F)     (DEG/KT/KT) (MB)    (FT/S) (FT/S)
BRANDYWINE LGT   1800   69 67  180/ 22/ 24 1021.3F
CAPE MAY NJ      1800   71 71  160/ 18/ 24 1021.4F
LEWES DE         1800   81 63  180/ 11/ 18 1021.4F
15NM E FENWICK I 1850   66 63              1022.3F   4/ 5
OCEAN-CITY-INLET 1800   66 66  220/ 14/ 16 1022.9F
WACHAPREAGUE VA  1800   75 78  190/ 16/ 20 1023.0F
THOMAS POINT MD  1900   76 69  160/ 16/ 16 1020.3F
GOOSES REEF MD   1900   72 70  170/ 16/ 17 1021.0F   1/ 2
COVE POINT MD    1800   71     190/ 14/ 16 1021.9F
SOLOMONS ISLAND  1800      70                N/A
BISHOPS HEAD MD  1800   75 76  150/ 17/ 18 1021.3F
PINEY POINT MD   1800          210/ 12/ 13   N/A
CAMBRIDGE MD     1800   82 71  150/  9/ 18 1020.9F
LEWISETTA VA     1800   82 75              1020.8F
RAPPAHANNOCK LGT 1800          170/ 12/ 12 1023.1F
STINGRAY PT      1900   75 74  160/ 14/ 16 1021.8F   2/ 3
YORK RVR RNG VA  1800   80     210/ 11/ 11 1021.7F
YORKTOWN VA      1800   83 72  180/ 10/ 12 1021.9F
JAMESTOWN VA     1900   83 77  210/  8/ 14 1020.4F
DOMINION TERM VA 1800   80     220/  9/ 10 1022.7F
KIPTOPEKE VA     1800      77  170/ 15/ 17   N/A
CHES BAY BRIDGE  1800   82 72  170/  6/  9 1022.2F
CAPE HENRY VA    1800   77     140/ 12/ 19 1021.6F
CHESAPEAKE LGHT  1800   69     170/ 28/ 29 1023.3F
WILLOUBY STN VA  1800   80     250/  7/  8 1023.3F
CAPE HENRY BUOY  1828      62                N/A     4/ 5
1ST LANDING BUOY 1900      71              1021.5F
CAPE CHARLES BUO 1826      69                N/A     3/ 5   2/ 8
OFFSHORE WE BUOY 1811      66                N/A     3/ 6   2/13
64NM E OF VA BCH 1850   67 64  170/ 14/ 16 1024.4F   3/ 5   2/ 7
DUCK PIER NC     1800   76 56  170/ 19/ 21 1023.5F
44100 DUCK FRF   1824      66                N/A     3/ 6
44056 DUCK FRF   1811      64                N/A     2/ 5
OREGON INLET NC  1800   77 76  160/ 12/ 17 1025.6F
HATTERAS NC      1800   77 74  160/ 11/ 14 1025.6F
DIAMOND SHLS NC  1850   74 77  160/ 12/ 16 1025.9F   3/ 8   2/ 8
CAPE LOOKOUT NC  1900   74     150/ 14/ 15 1024.8F
$$


USA.gov is the U.S. government's official web portal to all federal, state and local government web resources and services.